WB9FQS Weather Reports


Display with metric or nautical units.
time (UTC)temp
F
wind
direction
speed
MPH
gust
MPH
rain 1hr
in
rain 24hr
in
rain mn
in
humidity
%
barometer
mb
20260509090047 50 329 0.0 4.0 0.00 0.00 0.00 15 1005.0
20260509084535 50 144 0.0 0.0 0.00 0.00 0.00 17 1005.0
20260509083035 50 141 0.0 0.0 0.00 0.00 0.00 20 1005.1
20260509081532 50 141 0.0 0.0 0.00 0.00 0.00 25 1005.1
20260509080030 50 141 0.0 0.0 0.00 0.00 0.00 31 1005.3
20260509074528 50 141 0.0 0.0 0.00 0.00 0.00 32 1005.2
20260509073026 51 162 0.0 0.0 0.00 0.00 0.00 32 1005.1
20260509071524 51 141 0.0 0.0 0.00 0.00 0.00 38 1005.4
20260509070021 51 144 0.0 0.0 0.00 0.00 0.00 42 1005.8
20260509064518 51 144 0.0 0.0 0.00 0.00 0.00 49 1005.9
20260509063018 52 144 0.0 0.0 0.00 0.00 0.00 54 1006.1
20260509061514 52 144 0.0 0.0 0.00 0.00 0.00 53 1005.9
20260509060010 52 137 0.0 0.0 0.00 0.00 0.00 60 1006.1
20260509054508 53 144 0.0 0.0 0.00 0.00 0.00 67 1006.0
20260509053007 53 137 0.0 0.0 0.00 0.00 0.00 71 1006.3
20260509051503 53 153 0.0 0.0 0.00 0.00 0.00 74 1006.2
20260509050100 54 158 0.0 0.0 0.00 0.00 0.00 73 1006.4
20260509044556 54 158 0.0 0.0 0.00 0.00 0.00 76 1006.5
20260509043059 54 163 0.0 0.0 0.00 0.00 0.00 79 1006.5
20260509041548 55 164 0.0 0.0 0.00 0.00 0.00 80 1006.6
20260509040046 55 184 0.0 1.0 0.00 0.00 0.00 80 1006.6
20260509034539 55 141 0.0 0.0 0.00 0.01 0.00 80 1006.8
20260509033036 56 149 0.0 0.0 0.00 0.01 0.00 80 1006.8
20260509031534 56 149 0.0 0.0 0.00 0.01 0.00 80 1007.0
20260509030032 57 150 0.0 0.0 0.00 0.01 0.00 80 1007.1
20260509024533 57 150 0.0 0.0 0.00 0.01 0.00 80 1007.1
20260509023019 57 150 0.0 1.0 0.00 0.01 0.00 80 1007.1
20260509021516 58 150 0.0 1.0 0.00 0.01 0.00 80 1007.0
20260509020007 58 164 0.0 0.0 0.00 0.01 0.00 79 1007.0
20260509014503 59 180 0.0 3.0 0.00 0.01 0.00 77 1006.9
20260509013110 59 186 0.0 0.0 0.00 0.01 0.00 76 1006.8
20260509011554 60 188 0.0 0.0 0.00 0.01 0.00 75 1006.8
20260509010049 61 189 0.0 0.0 0.00 0.01 0.00 74 1006.7
20260509004550 61 197 0.0 2.0 0.00 0.01 0.00 75 1006.6
20260509003042 61 164 0.0 1.0 0.00 0.01 0.00 75 1006.6
20260509001536 61 154 0.0 1.0 0.00 0.01 0.00 75 1006.6
20260509000033 62 192 0.0 1.0 0.00 0.01 0.00 73 1006.6
20260508234527 62 198 0.0 3.0 0.00 0.05 0.00 71 1006.5
20260508233023 62 193 0.0 0.0 0.00 0.05 0.00 70 1006.6
20260508231518 62 279 0.0 3.0 0.00 0.05 0.00 68 1006.8
20260508230013 62 205 3.0 5.0 0.00 0.05 0.00 69 1006.9
20260508224509 62 170 0.0 1.0 0.00 0.05 0.00 69 1006.8
20260508223014 62 210 0.0 5.0 0.00 0.05 0.00 70 1006.9
20260508221602 62 189 0.0 1.0 0.00 0.05 0.00 69 1006.9
20260508220057 62 185 0.0 5.0 0.00 0.05 0.00 69 1007.0
20260508214607 62 170 0.0 0.0 0.00 0.05 0.00 68 1007.0
20260508213058 62 238 3.0 6.0 0.00 0.05 0.00 69 1007.1
20260508211542 62 218 2.0 7.0 0.00 0.05 0.00 70 1007.2
20260508210040 62 236 2.0 6.0 0.00 0.05 0.00 67 1007.3
20260508204533 62 219 1.0 8.0 0.00 0.05 0.00 68 1007.5
20260508203033 62 248 3.0 7.0 0.00 0.05 0.00 68 1007.7
20260508201524 62 195 0.0 6.0 0.00 0.05 0.00 69 1008.0
20260508200020 62 234 0.0 8.0 0.00 0.05 0.00 68 1008.2
20260508194514 61 220 2.0 6.0 0.00 0.05 0.00 71 1008.3
20260508193012 61 226 4.0 8.0 0.00 0.05 0.00 70 1008.5
20260508191505 61 246 2.0 6.0 0.00 0.05 0.00 72 1008.6
20260508190001 61 201 0.0 4.0 0.00 0.05 0.00 69 1008.8
20260508184558 61 196 0.0 6.0 0.00 0.05 0.00 69 1009.0
20260508183055 61 213 2.0 8.0 0.00 0.05 0.00 69 1009.2
20260508181609 61 238 3.0 6.0 0.00 0.05 0.00 70 1009.3
20260508174540 61 1 2.0 8.0 0.00 0.05 0.00 73 1009.7
20260508173036 61 206 3.0 8.0 0.00 0.05 0.00 72 1010.0
20260508171530 61 208 2.0 5.0 0.00 0.05 0.00 70 1010.1
20260508170026 61 180 0.0 2.0 0.00 0.05 0.00 72 1010.4
20260508164533 60 93 0.0 5.0 0.00 0.05 0.00 73 1010.6
20260508163016 60 199 1.0 3.0 0.00 0.05 0.00 72 1010.8
20260508161511 59 93 0.0 5.0 0.00 0.05 0.00 75 1010.9
20260508160015 60 141 0.0 1.0 0.00 0.05 0.00 75 1011.1
20260508154503 60 130 0.0 1.0 0.00 0.05 0.00 74 1011.2
20260508153105 60 148 0.0 5.0 0.00 0.05 0.00 76 1011.3
20260508151558 59 201 0.0 2.0 0.00 0.05 0.00 75 1011.4
20260508150050 57 203 0.0 4.0 0.00 0.05 0.00 77 1011.5
20260508144545 56 208 0.0 4.0 0.00 0.05 0.00 80 1011.4
20260508143040 55 170 0.0 2.0 0.00 0.05 0.00 80 1011.5
20260508141546 55 74 0.0 4.0 0.00 0.05 0.00 80 1011.5
20260508140032 54 201 0.0 7.0 0.00 0.05 0.00 80 1011.4
20260508134526 52 205 1.0 4.0 0.00 0.05 0.00 79 1011.7
20260508133022 51 172 0.0 1.0 0.00 0.05 0.00 74 1011.7
20260508131518 50 155 0.0 1.0 0.00 0.05 0.00 54 1012.0
20260508130013 48 196 0.0 2.0 0.00 0.05 0.00 1 1012.0
20260508124508 46 126 0.0 0.0 0.00 0.05 0.00 4 1012.2
20260508123004 45 126 0.0 0.0 0.00 0.05 0.00 5 1012.1
20260508121611 45 122 0.0 0.0 0.00 0.05 0.00 7 1011.7
20260508120101 44 122 0.0 0.0 0.00 0.05 0.00 8 1011.8
20260508114551 43 122 0.0 0.0 0.00 0.05 0.00 10 1011.5
20260508113055 42 122 0.0 0.0 0.00 0.05 0.00 12 1011.8
20260508111553 42 127 0.0 0.0 0.00 0.05 0.00 13 1011.6
20260508110051 41 127 0.0 0.0 0.00 0.05 0.00 15 1011.5
20260508104533 41 127 0.0 0.0 0.00 0.05 0.00 16 1011.4
20260508103034 40 127 0.0 0.0 0.00 0.05 0.00 19 1011.7
20260508101539 40 127 0.0 0.0 0.00 0.05 0.00 21 1011.7
20260508100029 41 127 0.0 0.0 0.00 0.05 0.00 19 1011.6
20260508094526 41 127 0.0 0.0 0.00 0.05 0.00 19 1011.7
20260508093025 41 127 0.0 0.0 0.00 0.05 0.00 21 1011.8
20260508091523 42 127 0.0 0.0 0.00 0.05 0.00 20 1011.7